Time,TemperatureF,DewpointF,PressureIn,WindDirection,WindDirectionDegrees,WindSpeedMPH,WindSpeedGustMPH,Humidity,HourlyPrecipIn,Conditions,Clouds,dailyrainin,SoftwareType,DateUTC
2013-01-09 00:02:00,38.0,26.0,-100.00,South,184,4.0,8.0,62,-99.99,,,-99.99,,2013-01-09 08:02:00,
2013-01-09 00:12:00,39.0,26.0,-100.00,SSE,161,1.0,5.0,60,-99.99,,,-99.99,,2013-01-09 08:12:00,
2013-01-09 00:22:00,44.0,27.0,-100.00,SSW,207,1.0,4.0,51,-99.99,,,-99.99,,2013-01-09 08:22:00,
2013-01-09 00:32:00,46.0,26.0,-100.00,NNW,345,3.0,6.0,46,-99.99,,,-99.99,,2013-01-09 08:32:00,
2013-01-09 00:42:00,44.0,26.0,-100.00,North,8,4.0,6.0,49,-99.99,,,-99.99,,2013-01-09 08:42:00,
2013-01-09 00:52:00,45.0,26.0,-100.00,NNW,336,3.0,5.0,47,-99.99,,,-99.99,,2013-01-09 08:52:00,
2013-01-09 01:02:00,45.0,26.0,-100.00,NNW,336,3.0,5.0,47,-99.99,,,-99.99,,2013-01-09 09:02:00,
2013-01-09 01:11:00,45.0,26.0,-100.00,NNW,334,2.0,6.0,47,-99.99,,,-99.99,,2013-01-09 09:11:00,
2013-01-09 01:22:00,48.0,25.0,-100.00,NW,324,2.0,3.0,41,-99.99,,,-99.99,,2013-01-09 09:22:00,
2013-01-09 01:32:00,49.0,26.0,-100.00,NNW,345,1.0,3.0,40,-99.99,,,-99.99,,2013-01-09 09:32:00,
2013-01-09 01:42:00,42.0,26.0,-100.00,NNE,13,1.0,4.0,53,-99.99,,,-99.99,,2013-01-09 09:42:00,
2013-01-09 01:53:00,41.0,27.0,-100.00,SSW,196,3.0,5.0,56,-99.99,,,-99.99,,2013-01-09 09:53:00,
2013-01-09 02:01:00,41.0,27.0,-100.00,SSW,196,3.0,5.0,56,-99.99,,,-99.99,,2013-01-09 10:01:00,
2013-01-09 02:11:00,40.0,26.0,-100.00,North,6,2.0,7.0,58,-99.99,,,-99.99,,2013-01-09 10:11:00,
2013-01-09 02:22:00,44.0,26.0,-100.00,NNE,12,4.0,8.0,49,-99.99,,,-99.99,,2013-01-09 10:22:00,
2013-01-09 02:32:00,46.0,26.0,-100.00,WSW,240,2.0,4.0,45,-99.99,,,-99.99,,2013-01-09 10:32:00,
2013-01-09 02:42:00,47.0,26.0,-100.00,North,351,2.0,5.0,43,-99.99,,,-99.99,,2013-01-09 10:42:00,
2013-01-09 02:52:00,49.0,25.0,-100.00,West,264,1.0,3.0,39,-99.99,,,-99.99,,2013-01-09 10:52:00,
2013-01-09 03:02:00,49.0,25.0,-100.00,West,264,1.0,3.0,39,-99.99,,,-99.99,,2013-01-09 11:02:00,
2013-01-09 03:11:00,51.0,26.0,-100.00,NNW,335,2.0,5.0,37,-99.99,,,-99.99,,2013-01-09 11:11:00,
2013-01-09 03:22:00,52.0,26.0,-100.00,SSE,167,1.0,2.0,36,-99.99,,,-99.99,,2013-01-09 11:22:00,
2013-01-09 03:32:00,53.0,25.0,-100.00,NNW,342,2.0,6.0,34,-99.99,,,-99.99,,2013-01-09 11:32:00,
2013-01-09 03:42:00,54.0,26.0,-100.00,WSW,250,1.0,2.0,33,-99.99,,,-99.99,,2013-01-09 11:42:00,
2013-01-09 03:52:00,54.0,25.0,-100.00,North,5,3.0,8.0,32,-99.99,,,-99.99,,2013-01-09 11:52:00,
2013-01-09 04:02:00,55.0,25.0,-100.00,North,9,3.0,7.0,31,-99.99,,,-99.99,,2013-01-09 12:02:00,
2013-01-09 04:12:00,53.0,25.0,-100.00,NNE,22,3.0,8.0,34,-99.99,,,-99.99,,2013-01-09 12:12:00,
2013-01-09 04:22:00,51.0,24.0,-100.00,NW,310,4.0,6.0,35,-99.99,,,-99.99,,2013-01-09 12:22:00,
2013-01-09 04:32:00,53.0,25.0,-100.00,NW,320,4.0,6.0,33,-99.99,,,-99.99,,2013-01-09 12:32:00,
2013-01-09 04:42:00,49.0,25.0,-100.00,NNW,341,4.0,7.0,39,-99.99,,,-99.99,,2013-01-09 12:42:00,
2013-01-09 04:52:00,48.0,26.0,-100.00,WNW,294,3.0,7.0,42,-99.99,,,-99.99,,2013-01-09 12:52:00,
2013-01-09 05:02:00,44.0,26.0,-100.00,SW,215,2.0,5.0,49,-99.99,,,-99.99,,2013-01-09 13:02:00,
2013-01-09 05:12:00,40.0,26.0,-100.00,South,185,3.0,5.0,57,-99.99,,,-99.99,,2013-01-09 13:12:00,
2013-01-09 05:22:00,37.0,26.0,-100.00,NNW,330,1.0,2.0,64,-99.99,,,-99.99,,2013-01-09 13:22:00,
2013-01-09 05:32:00,39.0,26.0,-100.00,NNE,17,2.0,3.0,60,-99.99,,,-99.99,,2013-01-09 13:32:00,
2013-01-09 05:42:00,39.0,26.0,-100.00,NNE,17,2.0,3.0,60,-99.99,,,-99.99,,2013-01-09 13:42:00,
2013-01-09 05:52:00,38.0,27.0,-100.00,WSW,252,1.0,3.0,63,-99.99,,,-99.99,,2013-01-09 13:52:00,
2013-01-09 06:02:00,35.0,26.0,-100.00,SSE,152,1.0,1.0,68,-99.99,,,-99.99,,2013-01-09 14:02:00,
2013-01-09 06:12:00,34.0,26.0,-100.00,WSW,243,1.0,1.0,71,-99.99,,,-99.99,,2013-01-09 14:12:00,
2013-01-09 06:22:00,34.0,26.0,-100.00,NW,315,1.0,2.0,72,-99.99,,,-99.99,,2013-01-09 14:22:00,
2013-01-09 06:32:00,35.0,27.0,-100.00,North,356,1.0,2.0,71,-99.99,,,-99.99,,2013-01-09 14:32:00,
2013-01-09 06:43:00,36.0,27.0,-100.00,North,11,2.0,3.0,70,-99.99,,,-99.99,,2013-01-09 14:43:00,
2013-01-09 06:52:00,35.0,26.0,-100.00,NNW,338,1.0,2.0,70,-99.99,,,-99.99,,2013-01-09 14:52:00,
2013-01-09 07:12:00,35.0,27.0,-100.00,North,7,3.0,4.0,71,-99.99,,,-99.99,,2013-01-09 15:12:00,
2013-01-09 07:22:00,35.0,27.0,-100.00,North,358,1.0,3.0,71,-99.99,,,-99.99,,2013-01-09 15:22:00,
2013-01-09 07:33:00,33.0,25.0,-100.00,ESE,108,1.0,2.0,73,-99.99,,,-99.99,,2013-01-09 15:33:00,
2013-01-09 07:42:00,32.0,26.0,-100.00,NNW,329,1.0,3.0,78,-99.99,,,-99.99,,2013-01-09 15:42:00,
2013-01-09 07:52:00,33.0,27.0,-100.00,South,186,1.0,3.0,77,-99.99,,,-99.99,,2013-01-09 15:52:00,
2013-01-09 08:02:00,33.0,26.0,-100.00,North,0,1.0,2.0,75,-99.99,,,-99.99,,2013-01-09 16:02:00,
2013-01-09 08:12:00,34.0,27.0,-100.00,NNE,19,1.0,2.0,75,-99.99,,,-99.99,,2013-01-09 16:12:00,
2013-01-09 08:22:00,37.0,28.0,-100.00,North,11,2.0,3.0,71,-99.99,,,-99.99,,2013-01-09 16:22:00,
2013-01-09 08:33:00,37.0,29.0,-100.00,South,178,1.0,4.0,72,-99.99,,,-99.99,,2013-01-09 16:33:00,
2013-01-09 08:42:00,39.0,30.0,-100.00,West,264,1.0,2.0,71,-99.99,,,-99.99,,2013-01-09 16:42:00,
2013-01-09 08:52:00,41.0,31.0,-100.00,South,182,1.0,2.0,66,-99.99,,,-99.99,,2013-01-09 16:52:00,
2013-01-09 09:02:00,41.0,31.0,-100.00,South,182,1.0,2.0,66,-99.99,,,-99.99,,2013-01-09 17:02:00,
2013-01-09 09:12:00,47.0,31.0,-100.00,ESE,116,1.0,2.0,54,-99.99,,,-99.99,,2013-01-09 17:12:00,
2013-01-09 09:22:00,49.0,31.0,-100.00,South,172,1.0,2.0,50,-99.99,,,-99.99,,2013-01-09 17:22:00,
2013-01-09 09:32:00,53.0,33.0,-100.00,SW,226,1.0,2.0,46,-99.99,,,-99.99,,2013-01-09 17:32:00,
2013-01-09 09:43:00,57.0,32.0,-100.00,ESE,115,1.0,3.0,38,-99.99,,,-99.99,,2013-01-09 17:43:00,
2013-01-09 09:52:00,59.0,30.0,-100.00,South,177,2.0,4.0,33,-99.99,,,-99.99,,2013-01-09 17:52:00,
2013-01-09 10:02:00,59.0,30.0,-100.00,South,177,2.0,4.0,33,-99.99,,,-99.99,,2013-01-09 18:02:00,
2013-01-09 10:12:00,61.0,29.0,-100.00,South,171,2.0,4.0,29,-99.99,,,-99.99,,2013-01-09 18:12:00,
2013-01-09 10:23:00,63.0,29.0,-100.00,ESE,120,2.0,6.0,27,-99.99,,,-99.99,,2013-01-09 18:23:00,
2013-01-09 10:33:00,63.0,27.0,-100.00,East,96,7.0,12.0,25,-99.99,,,-99.99,,2013-01-09 18:33:00,
2013-01-09 10:43:00,63.0,27.0,-100.00,East,96,7.0,12.0,25,-99.99,,,-99.99,,2013-01-09 18:43:00,
2013-01-09 10:52:00,63.0,27.0,-100.00,East,84,7.0,11.0,25,-99.99,,,-99.99,,2013-01-09 18:52:00,
2013-01-09 11:02:00,63.0,27.0,-100.00,East,84,8.0,13.0,25,-99.99,,,-99.99,,2013-01-09 19:02:00,
2013-01-09 11:12:00,63.0,27.0,-100.00,East,89,8.0,13.0,25,-99.99,,,-99.99,,2013-01-09 19:12:00,
2013-01-09 11:22:00,63.0,27.0,-100.00,East,81,10.0,14.0,25,-99.99,,,-99.99,,2013-01-09 19:22:00,
2013-01-09 11:30:00,64.0,26.0,-100.00,East,83,7.0,11.0,24,-99.99,,,-99.99,,2013-01-09 19:30:00,
2013-01-09 11:32:00,63.0,27.0,-100.00,East,81,10.0,14.0,25,-99.99,,,-99.99,,2013-01-09 19:32:00,
2013-01-09 11:42:00,63.0,27.0,-100.00,East,81,10.0,14.0,25,-99.99,,,-99.99,,2013-01-09 19:42:00,
2013-01-09 11:52:00,63.0,27.0,-100.00,East,79,9.0,15.0,25,-99.99,,,-99.99,,2013-01-09 19:52:00,
2013-01-09 12:02:00,64.0,26.0,-100.00,East,83,7.0,11.0,24,-99.99,,,-99.99,,2013-01-09 20:02:00,
2013-01-09 12:12:00,64.0,26.0,-100.00,East,83,7.0,11.0,24,-99.99,,,-99.99,,2013-01-09 20:12:00,
2013-01-09 12:22:00,64.0,26.0,-100.00,East,83,7.0,11.0,24,-99.99,,,-99.99,,2013-01-09 20:22:00,
2013-01-09 13:12:00,69.0,26.0,-100.00,SW,228,2.0,7.0,20,-99.99,,,-99.99,,2013-01-09 21:12:00,
2013-01-09 13:22:00,68.0,27.0,-100.00,SW,236,5.0,9.0,21,-99.99,,,-99.99,,2013-01-09 21:22:00,
2013-01-09 13:33:00,68.0,27.0,-100.00,WSW,243,5.0,11.0,21,-99.99,,,-99.99,,2013-01-09 21:33:00,
2013-01-09 13:42:00,68.0,27.0,-100.00,WSW,241,6.0,11.0,21,-99.99,,,-99.99,,2013-01-09 21:42:00,
2013-01-09 13:52:00,67.0,26.0,-100.00,SSW,213,5.0,13.0,21,-99.99,,,-99.99,,2013-01-09 21:52:00,
2013-01-09 14:02:00,67.0,26.0,-100.00,SSW,213,5.0,13.0,21,-99.99,,,-99.99,,2013-01-09 22:02:00,
2013-01-09 14:12:00,67.0,27.0,-100.00,West,277,5.0,11.0,22,-99.99,,,-99.99,,2013-01-09 22:12:00,
2013-01-09 14:22:00,67.0,27.0,-100.00,SW,217,6.0,15.0,22,-99.99,,,-99.99,,2013-01-09 22:22:00,
2013-01-09 14:33:00,66.0,27.0,-100.00,SSW,201,5.0,11.0,23,-99.99,,,-99.99,,2013-01-09 22:33:00,
2013-01-09 14:42:00,67.0,30.0,-100.00,WSW,237,4.0,10.0,25,-99.99,,,-99.99,,2013-01-09 22:42:00,
2013-01-09 14:52:00,66.0,31.0,-100.00,SSW,197,8.0,21.0,27,-99.99,,,-99.99,,2013-01-09 22:52:00,
2013-01-09 15:02:00,65.0,32.0,-100.00,South,179,10.0,17.0,29,-99.99,,,-99.99,,2013-01-09 23:02:00,
2013-01-09 15:12:00,65.0,33.0,-100.00,South,174,12.0,18.0,30,-99.99,,,-99.99,,2013-01-09 23:12:00,
2013-01-09 15:22:00,65.0,34.0,-100.00,South,191,9.0,17.0,31,-99.99,,,-99.99,,2013-01-09 23:22:00,
2013-01-09 15:32:00,65.0,34.0,-100.00,South,188,8.0,17.0,31,-99.99,,,-99.99,,2013-01-09 23:32:00,
2013-01-09 15:42:00,65.0,34.0,-100.00,SSW,192,6.0,13.0,32,-99.99,,,-99.99,,2013-01-09 23:42:00,
2013-01-09 15:52:00,65.0,34.0,-100.00,SSW,192,6.0,13.0,32,-99.99,,,-99.99,,2013-01-09 23:52:00,
2013-01-09 16:02:00,64.0,34.0,-100.00,SSW,198,5.0,10.0,32,-99.99,,,-99.99,,2013-01-10 00:02:00,
2013-01-09 16:12:00,64.0,34.0,-100.00,South,186,9.0,16.0,33,-99.99,,,-99.99,,2013-01-10 00:12:00,
2013-01-09 16:22:00,63.0,34.0,-100.00,South,190,8.0,14.0,34,-99.99,,,-99.99,,2013-01-10 00:22:00,
2013-01-09 16:32:00,62.0,35.0,-100.00,SSW,200,9.0,15.0,37,-99.99,,,-99.99,,2013-01-10 00:32:00,
2013-01-09 16:42:00,61.0,36.0,-100.00,South,191,9.0,16.0,40,-99.99,,,-99.99,,2013-01-10 00:42:00,
2013-01-09 16:52:00,61.0,38.0,-100.00,SSW,203,10.0,15.0,42,-99.99,,,-99.99,,2013-01-10 00:52:00,
2013-01-09 17:02:00,60.0,38.0,-100.00,SW,215,9.0,14.0,44,-99.99,,,-99.99,,2013-01-10 01:02:00,
2013-01-09 17:12:00,59.0,39.0,-100.00,SW,218,8.0,12.0,47,-99.99,,,-99.99,,2013-01-10 01:12:00,
2013-01-09 17:22:00,58.0,40.0,-100.00,SW,216,5.0,8.0,51,-99.99,,,-99.99,,2013-01-10 01:22:00,
2013-01-09 17:32:00,57.0,41.0,-100.00,SW,221,5.0,7.0,54,-99.99,,,-99.99,,2013-01-10 01:32:00,
2013-01-09 17:42:00,57.0,41.0,-100.00,SW,221,6.0,9.0,56,-99.99,,,-99.99,,2013-01-10 01:42:00,
2013-01-09 17:52:00,56.0,42.0,-100.00,SW,230,6.0,10.0,59,-99.99,,,-99.99,,2013-01-10 01:52:00,
2013-01-09 18:02:00,55.0,42.0,-100.00,SW,229,8.0,13.0,62,-99.99,,,-99.99,,2013-01-10 02:02:00,
2013-01-09 18:12:00,55.0,43.0,-100.00,SW,236,9.0,14.0,63,-99.99,,,-99.99,,2013-01-10 02:12:00,
2013-01-09 18:22:00,54.0,43.0,-100.00,WSW,237,7.0,13.0,65,-99.99,,,-99.99,,2013-01-10 02:22:00,
2013-01-09 18:32:00,54.0,42.0,-100.00,WSW,244,7.0,10.0,64,-99.99,,,-99.99,,2013-01-10 02:32:00,
2013-01-09 18:42:00,54.0,42.0,-100.00,WSW,244,7.0,10.0,64,-99.99,,,-99.99,,2013-01-10 02:42:00,
2013-01-09 18:52:00,54.0,42.0,-100.00,WSW,244,7.0,10.0,64,-99.99,,,-99.99,,2013-01-10 02:52:00,
2013-01-09 19:02:00,53.0,41.0,-100.00,NW,308,3.0,8.0,64,-99.99,,,-99.99,,2013-01-10 03:02:00,
2013-01-09 19:11:00,51.0,41.0,-100.00,NNE,22,2.0,3.0,68,-99.99,,,-99.99,,2013-01-10 03:11:00,
2013-01-09 19:22:00,50.0,41.0,-100.00,WNW,296,1.0,2.0,70,-99.99,,,-99.99,,2013-01-10 03:22:00,
2013-01-09 19:32:00,49.0,40.0,-100.00,South,176,1.0,2.0,70,-99.99,,,-99.99,,2013-01-10 03:32:00,
2013-01-09 19:42:00,48.0,39.0,-100.00,NNW,334,3.0,6.0,72,-99.99,,,-99.99,,2013-01-10 03:42:00,
2013-01-09 19:52:00,49.0,40.0,-100.00,North,350,5.0,7.0,70,-99.99,,,-99.99,,2013-01-10 03:52:00,
2013-01-09 20:02:00,48.0,39.0,-100.00,NNE,14,2.0,4.0,71,-99.99,,,-99.99,,2013-01-10 04:02:00,
2013-01-09 20:12:00,45.0,38.0,-100.00,SSE,164,2.0,4.0,75,-99.99,,,-99.99,,2013-01-10 04:12:00,
2013-01-09 20:22:00,44.0,38.0,-100.00,WNW,288,1.0,4.0,79,-99.99,,,-99.99,,2013-01-10 04:22:00,
2013-01-09 20:32:00,44.0,38.0,-100.00,East,82,1.0,2.0,79,-99.99,,,-99.99,,2013-01-10 04:32:00,
2013-01-09 20:42:00,43.0,38.0,-100.00,WSW,244,1.0,2.0,81,-99.99,,,-99.99,,2013-01-10 04:42:00,
2013-01-09 20:52:00,43.0,38.0,-100.00,NE,52,1.0,2.0,82,-99.99,,,-99.99,,2013-01-10 04:52:00,
2013-01-09 21:03:00,43.0,38.0,-100.00,NNE,17,2.0,5.0,81,-99.99,,,-99.99,,2013-01-10 05:03:00,
2013-01-09 21:12:00,42.0,37.0,-100.00,NNW,335,1.0,2.0,81,-99.99,,,-99.99,,2013-01-10 05:12:00,
2013-01-09 21:22:00,41.0,36.0,-100.00,NNW,337,1.0,3.0,82,-99.99,,,-99.99,,2013-01-10 05:22:00,
2013-01-09 21:32:00,40.0,35.0,-100.00,NNW,344,1.0,3.0,83,-99.99,,,-99.99,,2013-01-10 05:32:00,
2013-01-09 21:42:00,39.0,35.0,-100.00,NNW,347,2.0,3.0,86,-99.99,,,-99.99,,2013-01-10 05:42:00,
2013-01-09 21:52:00,40.0,36.0,-100.00,NNW,340,2.0,3.0,84,-99.99,,,-99.99,,2013-01-10 05:52:00,
2013-01-09 22:02:00,40.0,35.0,-100.00,NNW,345,2.0,3.0,83,-99.99,,,-99.99,,2013-01-10 06:02:00,
2013-01-09 22:11:00,40.0,35.0,-100.00,North,360,2.0,3.0,83,-99.99,,,-99.99,,2013-01-10 06:11:00,
2013-01-09 22:22:00,39.0,34.0,-100.00,NNE,32,1.0,3.0,83,-99.99,,,-99.99,,2013-01-10 06:22:00,
2013-01-09 22:32:00,38.0,34.0,-100.00,NNW,348,2.0,4.0,86,-99.99,,,-99.99,,2013-01-10 06:32:00,
2013-01-09 22:42:00,38.0,34.0,-100.00,NNW,348,2.0,4.0,86,-99.99,,,-99.99,,2013-01-10 06:42:00,
2013-01-09 22:52:00,36.0,32.0,-100.00,South,186,2.0,5.0,86,-99.99,,,-99.99,,2013-01-10 06:52:00,
2013-01-09 23:02:00,35.0,32.0,-100.00,NW,308,1.0,2.0,90,-99.99,,,-99.99,,2013-01-10 07:02:00,
2013-01-09 23:11:00,35.0,32.0,-100.00,NW,308,1.0,2.0,90,-99.99,,,-99.99,,2013-01-10 07:11:00,
2013-01-09 23:22:00,35.0,33.0,-100.00,SW,225,1.0,2.0,91,-99.99,,,-99.99,,2013-01-10 07:22:00,
2013-01-09 23:32:00,35.0,33.0,-100.00,SW,225,1.0,2.0,91,-99.99,,,-99.99,,2013-01-10 07:32:00,
2013-01-09 23:42:00,34.0,32.0,-100.00,NW,311,1.0,2.0,92,-99.99,,,-99.99,,2013-01-10 07:42:00,